Regional Weather Roundup
Issued by NWS

Home | Current Version | Previous Version | Text Only | Print | Product List | Glossary On
Versions: 1 2 3 4 5 6 7 8 9 10 11 12 13 14 15 16 17 18 19 20 21 22 23 24 25 26 27
000
ASUS45 KBOU 260607
RWRCO

WEATHER ROUNDUP FOR COLORADO
NATIONAL WEATHER SERVICE DENVER/BOULDER CO
1200 AM MDT SUN JUN 26 2016

NOTE: "FAIR" INDICATES FEW OR NO CLOUDS BELOW 12000 FEET WITH NO
SIGNIFICANT WEATHER AND/OR OBSTRUCTIONS TO VISIBILITY.

COZ001>005-013-030-031-260700-
...NORTHWEST COLORADO...

CITY           SKY/WX    TMP DP  RH WIND       PRES   REMARKS
CRAIG          FAIR      49  39  68 CALM      30.27R
HAYDEN         FAIR      54  34  47 CALM      30.29R
MEEKER         FAIR      56  40  55 VRB5      30.27R
MOUNT WERNER   NOT AVBL
STEAMBOAT SPGS FAIR      54  36  49 CALM      30.31R
WALDEN         FAIR      48  30  49 CALM      30.42R
$$

COZ006>008-011-260700-
...WEST CENTRAL VALLEYS...

CITY           SKY/WX    TMP DP  RH WIND       PRES   REMARKS
GRAND JUNCTION FAIR      68  25  19 NW3       30.10R
MONTROSE       FAIR      66  38  35 SE12      30.20R
EAGLE          FAIR      61  36  39 E5        30.31R
RIFLE          FAIR      65  34  31 SE13      30.18R
DELTA          FAIR      74  30  19 CALM      30.15R
NUCLA          FAIR      68  27  21 E12       30.23R
$$

COZ017>023-064>068-260700-
...SOUTHWEST COLORADO...

CITY           SKY/WX    TMP DP  RH WIND       PRES   REMARKS
DURANGO        FAIR      63  41  44 N3        30.24R
CORTEZ         FAIR      61  35  37 E5        30.18R
PAGOSA SPRINGS FAIR      59  43  55 NW5       30.34S
TELLURIDE      FAIR      57  33  41 SE5       30.48R
WOLF CREEK PAS MOCLDY    52  32  46 N12       30.69S
$$

COZ009-010-012-014-032>034-037-058>063-260700-
...CENTRAL COLORADO...

CITY           SKY/WX    TMP DP  RH WIND       PRES   REMARKS
ASPEN          FAIR      57  36  45 VRB7      30.36R
BUENA VISTA    FAIR      54  43  67 CALM      30.43R
COPPER MTN     FAIR      52  32  46 E5        30.69S
BERTHOUD PASS  FAIR      41  30  65 SE6       30.71F
COTTONWOOD PAS FAIR      59  43  55 CALM      30.56R
GUNNISON       FAIR      59  37  44 N6        30.39R
KREMMLING      FAIR      50  36  57 CALM      30.37S
LEADVILLE      FAIR      47  33  58 CALM      30.53R
MONARCH PASS   FAIR      43  37  81 NE25      30.77S
SALIDA         FAIR      64  45  50 SE6       30.47R
SUNLIGHT       FAIR      55  27  33 CALM      30.61R
WILKERSON PASS CLOUDY    46  37  71 S7        30.68R
$$

COZ069>075-260700-
...SAN LUIS VALLEY/SANGRE DE CRISTO MOUNTAINS...

CITY           SKY/WX    TMP DP  RH WIND       PRES   REMARKS
ALAMOSA        FAIR      62  45  53 E10       30.33R
LA VETA PASS   MOCLDY    45  43  93 NE12      30.56S
SAGUACHE       FAIR      55  37  50 N5        30.39R
$$

COZ035-036-038>040-260700-
...NORTHERN COLORADO FRONT RANGE...

CITY           SKY/WX    TMP DP  RH WIND       PRES   REMARKS
DENVER INTL AP FAIR      59  49  69 SE12      30.24F
DMNS CITY PARK   N/A     65  50  56 E1        30.25S
AURORA         PTCLDY    65  51  60 SE13      30.27S
FRONT RANGE AP NOT AVBL
ERIE MUNI ARPT MOCLDY    66  48  52 CALM      30.24S
BOULDER MUN AP FAIR      64  50  59 S3        30.25R
CENTENNIAL     FAIR      64  50  60 SE9       30.28S
BROOMFIELD     FAIR      66  46  48 SE3       30.28S
LONGMONT       FAIR      64  52  64 CALM      30.26R
$$

COZ041-046-047-076>085-087-088-260700-
...PIKES PEAK/PALMER DIVIDE AND SOUTHERN FOOTHILLS...

CITY           SKY/WX    TMP DP  RH WIND       PRES   REMARKS
COLO. SPRINGS  LGT RAIN  63  53  70 SE7       30.37R
A. F. ACADEMY    N/A     59  55  87 SE9       30.36R
SCHRIEVER AFB  NOT AVBL
ELLICOTT       CLOUDY   N/A N/A N/A NW6       30.37R
FALCON         NOT AVBL
FORT CARSON    CLOUDY    66  53  63 S3        30.34R
LIMON          FAIR      54  49  83 MISG      30.27R
MONUMENT HILL  FAIR      55  50  82 S6        30.39F
TRINIDAD       FAIR      62  49  62 S7        30.31R
$$

COZ042>045-048>051-090-091-260700-
...NORTHEAST COLORADO...

CITY           SKY/WX    TMP DP  RH WIND       PRES   REMARKS
GREELEY ARPT     N/A    N/A N/A N/A MISG        N/A
AKRON          FAIR      64  53  67 S10       30.21R
BURLINGTON     FAIR      67  54  63 E7        30.19R
WRAY           FAIR      64  54  68 CALM      30.16R
STERLING       FAIR      64  55  72 CALM      30.17R
HOLYOKE        NOT AVBL
FORT MORGAN    FAIR      62  50  63 S3        30.21R
$$

COZ086-089-092>099-260700-
...SOUTHEAST COLORADO...

CITY           SKY/WX    TMP DP  RH WIND       PRES   REMARKS
PUEBLO         FAIR      67  61  81 N5        30.26R
LA JUNTA       FAIR      66  58  75 SW13      30.21R
LAMAR          FAIR      68  59  73 SE20      30.09F
SPRINGFIELD      N/A     63  59  87 E10       30.22R
$$




USA.gov is the U.S. government's official web portal to all federal, state and local government web resources and services.